Back to catalog

STARLINK-32616

AliveCommunicationsVLEO
NORAD 61920·PAYLOAD·🇺🇸 United States

Launched Nov 11, 2024 from Cape Canaveral Space Force Station

Loading…

Next Passes (next 24 hours)

TLE

FreshSource: CelesTrak SupGP

Epoch: Sep 15, 2026, 03:34 UTC

1 61920C 24207J   26258.14909722 -.00000104  00000+0 -37569-5 0  2589
2 61920  43.0000 291.8305 0001346 264.9867 208.3394 15.27583809    19

Track STARLINK-32616 in real time with AllMySat

Download on the App Store